When you browse on this site, cookies collect data to enhance your experience and personalize the content and advertising you see.
Visit our Privacy Policy to learn more. By continuing to use the site, you agree to this use of cookies and data.
  • In Latvia
  • List of Countries
  • For 7 days
  • Water Temperature
  • Weather Map
  • Weather Widgets
  • user-avatar
    Login

    Hourly Weather Olten

    Today, 17 September, Tuesday

    Time Temperature Precipitation Wind Pressure Humidity
    00:00 +15°C° 0 mm 0 mps 720 mmHg 88%
    01:00 +15°C° 0 mm 0 mps 719 mmHg 86%
    02:00 +15°C° 0 mm 0 mps 719 mmHg 87%
    03:00 +14°C° 0 mm 0 mps 719 mmHg 87%
    04:00 +14°C° 0 mm 0 mps 719 mmHg 87%
    05:00 +14°C° 0 mm 0 mps 719 mmHg 87%
    06:00 +14°C° 0 mm 0 mps 719 mmHg 86%
    07:00 +14°C° 0 mm 0 mps 719 mmHg 87%
    08:00 +16°C° 0 mm 0 mps 719 mmHg 78%
    09:00 +20°C° 0 mm 1 mps 719 mmHg 69%
    10:00 +22°C° 0 mm 1 mps 720 mmHg 60%
    11:00 +23°C° 0 mm 1 mps 720 mmHg 56%
    12:00 +24°C° 0 mm 2 mps 719 mmHg 51%
    13:00 +25°C° 0 mm 2 mps 720 mmHg 48%
    14:00 +25°C° 0 mm 2 mps 719 mmHg 52%
    15:00 +24°C° 0 mm 3 mps 719 mmHg 56%
    16:00 +24°C° 0 mm 3 mps 719 mmHg 59%
    17:00 +20°C° 0 mm 2 mps 719 mmHg 70%
    18:00 +19°C° 0 mm 1 mps 719 mmHg 80%
    19:00 +16°C° 0 mm 1 mps 719 mmHg 90%
    20:00 +16°C° 0 mm 1 mps 719 mmHg 89%
    21:00 +15°C° 0 mm 1 mps 719 mmHg 88%
    22:00 +15°C° 0 mm 1 mps 719 mmHg 87%
    23:00 +15°C° 0 mm 2 mps 720 mmHg 82%

    Tomorrow, 18 September, Wednesday

    Time Temperature Precipitation Wind Pressure Humidity
    00:00 +15°C° 0 mm 2 mps 720 mmHg 77%
    01:00 +14°C° 0 mm 3 mps 720 mmHg 73%
    02:00 +12°C° 0 mm 3 mps 719 mmHg 76%
    03:00 +12°C° 0 mm 2 mps 719 mmHg 79%
    04:00 +9°C° 0 mm 2 mps 719 mmHg 83%
    05:00 +9°C° 0 mm 2 mps 719 mmHg 83%
    06:00 +9°C° 0 mm 2 mps 719 mmHg 83%
    07:00 +9°C° 0 mm 2 mps 720 mmHg 84%
    08:00 +10°C° 0 mm 3 mps 720 mmHg 77%
    09:00 +12°C° 0 mm 3 mps 720 mmHg 71%
    10:00 +14°C° 0 mm 3 mps 720 mmHg 64%
    11:00 +15°C° 0 mm 4 mps 720 mmHg 60%
    12:00 +17°C° 0 mm 4 mps 720 mmHg 56%
    13:00 +18°C° 0 mm 4 mps 720 mmHg 51%
    14:00 +18°C° 0 mm 4 mps 720 mmHg 50%
    15:00 +18°C° 0 mm 4 mps 720 mmHg 48%
    16:00 +18°C° 0 mm 4 mps 720 mmHg 47%
    17:00 +15°C° 0 mm 4 mps 720 mmHg 52%
    18:00 +13°C° 0 mm 3 mps 720 mmHg 57%
    19:00 +11°C° 0 mm 3 mps 720 mmHg 62%
    20:00 +10°C° 0 mm 2 mps 720 mmHg 66%
    21:00 +9°C° 0 mm 2 mps 720 mmHg 71%
    22:00 +8°C° 0 mm 2 mps 721 mmHg 75%
    23:00 +8°C° 0 mm 2 mps 721 mmHg 77%

    Day after tomorrow, 19 September, Thursday

    Time Temperature Precipitation Wind Pressure Humidity
    00:00 +7°C° 0 mm 2 mps 721 mmHg 78%
    01:00 +8°C° 0 mm 1 mps 721 mmHg 80%
    02:00 +7°C° 0 mm 1 mps 720 mmHg 81%
    03:00 +7°C° 0 mm 1 mps 720 mmHg 82%
    04:00 +6°C° 0 mm 1 mps 720 mmHg 83%
    05:00 +6°C° 0 mm 1 mps 720 mmHg 82%
    06:00 +7°C° 0 mm 1 mps 720 mmHg 81%
    07:00 +7°C° 0 mm 1 mps 721 mmHg 81%
    08:00 +8°C° 0 mm 2 mps 721 mmHg 72%
    09:00 +10°C° 0 mm 3 mps 721 mmHg 64%
    10:00 +12°C° 0 mm 3 mps 722 mmHg 55%
    11:00 +14°C° 0 mm 4 mps 722 mmHg 52%
    12:00 +15°C° 0 mm 4 mps 722 mmHg 48%
    13:00 +17°C° 0 mm 4 mps 722 mmHg 44%
    14:00 +17°C° 0 mm 4 mps 722 mmHg 44%
    15:00 +17°C° 0 mm 4 mps 721 mmHg 45%
    16:00 +17°C° 0 mm 4 mps 721 mmHg 46%
    17:00 +14°C° 0 mm 4 mps 721 mmHg 53%
    18:00 +12°C° 0 mm 3 mps 721 mmHg 60%
    19:00 +10°C° 0 mm 3 mps 721 mmHg 67%
    20:00 +9°C° 0 mm 3 mps 722 mmHg 70%
    21:00 +8°C° 0 mm 2 mps 722 mmHg 73%
    22:00 +7°C° 0 mm 2 mps 722 mmHg 77%
    23:00 +7°C° 0 mm 2 mps 722 mmHg 78%

    20 September, Friday

    Time Temperature Precipitation Wind Pressure Humidity
    00:00 +7°C° 0 mm 1 mps 722 mmHg 79%
    01:00 +6°C° 0 mm 1 mps 721 mmHg 80%
    02:00 +6°C° 0 mm 1 mps 721 mmHg 81%
    03:00 +6°C° 0 mm 1 mps 721 mmHg 82%
    04:00 +5°C° 0 mm 1 mps 721 mmHg 83%
    05:00 +5°C° 0 mm 1 mps 721 mmHg 83%
    06:00 +5°C° 0 mm 1 mps 721 mmHg 82%
    07:00 +6°C° 0 mm 1 mps 721 mmHg 82%
    08:00 +8°C° 0 mm 1 mps 721 mmHg 73%
    09:00 +9°C° 0 mm 2 mps 721 mmHg 65%
    10:00 +13°C° 0 mm 2 mps 721 mmHg 56%
    11:00 +14°C° 0 mm 2 mps 721 mmHg 53%
    12:00 +16°C° 0 mm 3 mps 721 mmHg 49%
    13:00 +18°C° 0 mm 3 mps 721 mmHg 46%
    14:00 +18°C° 0 mm 3 mps 721 mmHg 47%
    15:00 +18°C° 0 mm 3 mps 720 mmHg 48%
    16:00 +18°C° 0 mm 3 mps 720 mmHg 49%
    17:00 +16°C° 0 mm 2 mps 720 mmHg 58%
    18:00 +14°C° 0 mm 2 mps 720 mmHg 68%
    19:00 +10°C° 0 mm 2 mps 720 mmHg 78%
    20:00 +10°C° 0 mm 2 mps 720 mmHg 81%
    21:00 +10°C° 0 mm 1 mps 720 mmHg 85%
    22:00 +9°C° 0 mm 1 mps 720 mmHg 89%
    23:00 +9°C° 0 mm 1 mps 720 mmHg 90%

    21 September, Saturday

    Time Temperature Precipitation Wind Pressure Humidity
    00:00 +8°C° 0 mm 1 mps 719 mmHg 91%
    01:00 +8°C° 0 mm 1 mps 719 mmHg 92%
    02:00 +8°C° 0 mm 1 mps 719 mmHg 92%
    03:00 +8°C° 0 mm 1 mps 719 mmHg 92%
    04:00 +8°C° 0 mm 1 mps 719 mmHg 92%
    05:00 +8°C° 0 mm 1 mps 719 mmHg 92%
    06:00 +8°C° 0 mm 1 mps 719 mmHg 91%
    07:00 +9°C° 0 mm 1 mps 719 mmHg 90%
    08:00 +12°C° 0 mm 1 mps 719 mmHg 80%
    09:00 +15°C° 0 mm 1 mps 719 mmHg 70%
    10:00 +19°C° 0 mm 1 mps 720 mmHg 60%
    11:00 +21°C° 0 mm 1 mps 720 mmHg 56%
    12:00 +23°C° 0 mm 1 mps 720 mmHg 51%
    13:00 +25°C° 0 mm 1 mps 719 mmHg 46%
    14:00 +25°C° 0 mm 1 mps 719 mmHg 48%
    15:00 +25°C° 0 mm 1 mps 719 mmHg 49%
    16:00 +25°C° 0 mm 1 mps 719 mmHg 51%
    17:00 +23°C° 0 mm 1 mps 719 mmHg 58%
    18:00 +21°C° 0 mm 1 mps 718 mmHg 64%
    19:00 +19°C° 0 mm 1 mps 718 mmHg 70%
    20:00 +18°C° 0 mm 1 mps 718 mmHg 74%
    21:00 +16°C° 0 mm 1 mps 718 mmHg 78%
    22:00 +15°C° 0 mm 1 mps 718 mmHg 82%
    23:00 +15°C° 0 mm 1 mps 717 mmHg 84%

    22 September, Sunday

    Time Temperature Precipitation Wind Pressure Humidity
    00:00 +14°C° 0 mm 1 mps 717 mmHg 86%
    01:00 +13°C° 0 mm 0 mps 717 mmHg 87%
    02:00 +14°C° 0 mm 1 mps 717 mmHg 88%
    03:00 +13°C° 0 mm 1 mps 717 mmHg 89%
    04:00 +13°C° 0 mm 1 mps 717 mmHg 89%
    05:00 +13°C° 0 mm 1 mps 717 mmHg 89%
    06:00 +13°C° 0 mm 1 mps 716 mmHg 88%
    07:00 +13°C° 0 mm 1 mps 716 mmHg 87%
    08:00 +16°C° 0 mm 1 mps 717 mmHg 78%
    09:00 +19°C° 0 mm 1 mps 717 mmHg 68%
    10:00 +22°C° 0 mm 1 mps 717 mmHg 59%
    11:00 +22°C° 0 mm 1 mps 717 mmHg 59%
    12:00 +23°C° 0 mm 1 mps 717 mmHg 58%
    13:00 +24°C° 0 mm 1 mps 717 mmHg 58%
    14:00 +23°C° 0 mm 1 mps 717 mmHg 60%
    15:00 +23°C° 0 mm 1 mps 716 mmHg 62%
    16:00 +23°C° 0 mm 1 mps 716 mmHg 64%
    17:00 +21°C° 0 mm 1 mps 716 mmHg 71%
    18:00 +20°C° 0 mm 1 mps 715 mmHg 78%
    19:00 +18°C° 0 mm 1 mps 715 mmHg 85%
    20:00 +18°C° 0.1 mm 1 mps 715 mmHg 87%
    21:00 +16°C° 0.1 mm 1 mps 716 mmHg 90%
    22:00 +16°C° 0.1 mm 1 mps 716 mmHg 92%
    23:00 +16°C° 1.7 mm 1 mps 716 mmHg 94%
    Show more